Love Boat — OT3861 — position and weather

sailwx.info

Track history (hours):
 
Tides and Currents Weather Stations Pressure Air Temp Water Temp Dewpoint Dewpoint Depression Visibility Wind Speed Wind Dir Waves Ship Positions

Love Boat

Last reported at 2014-Oct-31 17:30 UTC. Time now 2014-Nov-01 02:48 UTC.
Position N 49°25' E 008°30'.

Length 110 m; draft 3 m.

Type: Ship. MMSI: 205386190.

Date/timePositionNaut miles runAvg speedWind from/ knotsBaromVisibWave heightAir tempDewpointWater temp
2014-Oct-31 17:30N 49°25' E 008°30'7 7.5
2014-Oct-31 16:33N 49°18' E 008°29'9 8.6
2014-Oct-31 15:33N 49°11' E 008°23'9 9.4
2014-Oct-31 14:34N 49°02' E 008°18'10 9.4
2014-Oct-31 13:32N 48°54' E 008°09'5 4.5
2014-Oct-31 12:20N 48°49' E 008°06'6 7.9
2014-Oct-31 11:33N 48°46' E 007°59'5 5.2
2014-Oct-31 10:33N 48°41' E 007°55'1 0.0
2014-Oct-29 13:09N 48°42' E 007°55'4 6.0
2014-Oct-29 12:33N 48°45' E 007°58'11 4.7
2014-Oct-29 10:06N 48°54' E 008°08'2 4.0
2014-Oct-29 09:32N 48°56' E 008°10'4 3.7
2014-Oct-29 08:33N 48°58' E 008°14'4 4.0
2014-Oct-29 07:33N 49°01' E 008°18'4 4.2
2014-Oct-29 06:33N 49°05' E 008°21'4 4.3
2014-Oct-29 05:33N 49°09' E 008°22'2 2.2
2014-Oct-29 04:34N 49°11' E 008°23'0 0.0
2014-Oct-29 03:33N 49°11' E 008°23'0 0.0
2014-Oct-29 02:33N 49°11' E 008°23'0 0.0
2014-Oct-29 01:33N 49°11' E 008°23'0 0.0
2014-Oct-29 00:33N 49°11' E 008°23'0 0.0
2014-Oct-28 23:33N 49°11' E 008°23'0 0.0
2014-Oct-28 22:33N 49°11' E 008°23'0 0.0
2014-Oct-28 21:33N 49°11' E 008°23'2 1.5
2014-Oct-28 20:33N 49°13' E 008°23'5 4.5
2014-Oct-28 19:33N 49°17' E 008°27'3 3.2
2014-Oct-28 18:33N 49°20' E 008°27'  
2014-Oct-25 06:28N 50°54' E 007°00'2 2.5
2014-Oct-25 05:32N 50°55' E 006°58'7 3.5
2014-Oct-25 03:27N 51°03' E 006°56'3 3.8
2014-Oct-25 02:33N 51°04' E 006°52'3 2.8
2014-Oct-25 01:33N 51°07' E 006°52'3 2.5
2014-Oct-25 00:33N 51°09' E 006°50'2 2.2
2014-Oct-24 23:33N 51°11' E 006°47'3 3.1
2014-Oct-24 22:33N 51°13' E 006°44'2 2.2
2014-Oct-24 21:33N 51°15' E 006°46'3 3.1
2014-Oct-24 20:33N 51°17' E 006°43'4 3.2
2014-Oct-24 19:16N 51°21' E 006°40'2 2.8
2014-Oct-24 18:33N 51°22' E 006°42'28 3.4
2014-Oct-24 10:18N 51°46' E 006°20'18 4.5
2014-Oct-24 06:19N 51°51' E 005°51'5 5.6
2014-Oct-24 05:29N 51°53' E 005°45'5 5.5
2014-Oct-24 04:33N 51°54' E 005°36'6 5.6
2014-Oct-24 03:33N 51°53' E 005°27'6 5.7
2014-Oct-24 02:33N 51°48' E 005°22'5 5.0
2014-Oct-24 01:33N 51°49' E 005°14'6 5.8
2014-Oct-24 00:33N 51°50' E 005°05'7 6.5
2014-Oct-23 23:33N 51°49' E 004°54'7 6.9
2014-Oct-23 22:33N 51°46' E 004°45'10 8.1
2014-Oct-23 21:21N 51°42' E 004°30'4 4.2
2014-Oct-23 20:26N 51°42' E 004°24'3 3.7
2014-Oct-23 19:33N 51°39' E 004°20'7 5.9
2014-Oct-23 18:23N 51°40' E 004°09'3 3.9
2014-Oct-23 17:33N 51°38' E 004°05'7 6.5
2014-Oct-23 16:33N 51°33' E 003°59'6 5.6
2014-Oct-23 15:33N 51°27' E 004°01'5 4.8
2014-Oct-23 14:33N 51°24' E 003°55'7 6.6
2014-Oct-23 13:33N 51°24' E 003°44'3 3.3
2014-Oct-23 12:33N 51°27' E 003°43'0 0.0
2014-Oct-23 11:33N 51°27' E 003°43'0 0.0
2014-Oct-23 10:33N 51°27' E 003°43'0 0.0
2014-Oct-23 09:33N 51°27' E 003°43'0 0.0
2014-Oct-23 08:33N 51°27' E 003°43'0 0.0
2014-Oct-23 07:33N 51°27' E 003°43'0 0.0
2014-Oct-23 06:33N 51°27' E 003°43'0 0.0
2014-Oct-23 05:33N 51°27' E 003°43'0 0.0
2014-Oct-23 04:33N 51°27' E 003°43'0 0.0
2014-Oct-23 03:33N 51°27' E 003°43'0 0.0
2014-Oct-23 02:33N 51°27' E 003°43'0 0.0
2014-Oct-23 01:33N 51°27' E 003°43'0 0.0
2014-Oct-23 00:33N 51°27' E 003°43'0 0.0
2014-Oct-22 23:34N 51°27' E 003°43'0 0.0
2014-Oct-22 22:33N 51°27' E 003°43'0 0.0
2014-Oct-22 21:33N 51°27' E 003°43'1 0.8
2014-Oct-22 20:33N 51°27' E 003°42'6 6.0
2014-Oct-22 19:33N 51°23' E 003°48'7 7.2
2014-Oct-22 18:33N 51°27' E 003°58'9 9.0
2014-Oct-22 17:33N 51°23' E 004°11'8 8.3
2014-Oct-22 16:33N 51°16' E 004°19'1 1.2
2014-Oct-22 15:32N 51°16' E 004°17'1 0.5
2014-Oct-22 14:32N 51°16' E 004°16'1 1.4
2014-Oct-22 13:33N 51°15' E 004°14'0 0.0
2014-Oct-22 12:33N 51°15' E 004°14'0 0.1
2014-Oct-22 11:33N 51°16' E 004°14'0 0.0
2014-Oct-22 10:33N 51°16' E 004°14'0 0.0
2014-Oct-22 09:33N 51°16' E 004°14'0 0.0
2014-Oct-22 08:25N 51°16' E 004°14'0 0.1
2014-Oct-22 07:33N 51°15' E 004°14'0 0.1
2014-Oct-22 06:31N 51°15' E 004°14'0 0.0
2014-Oct-22 05:33N 51°15' E 004°14'0 0.0
2014-Oct-22 04:34N 51°15' E 004°14'0 0.0
2014-Oct-22 03:33N 51°15' E 004°14'0 0.0
2014-Oct-22 02:29N 51°15' E 004°14'0 0.0
2014-Oct-22 01:33N 51°15' E 004°14'0 0.0
2014-Oct-22 00:33N 51°15' E 004°14'0 0.0
2014-Oct-21 21:31N 51°15' E 004°14'0 0.0
2014-Oct-21 20:27N 51°15' E 004°14'0 0.0
2014-Oct-21 19:31N 51°15' E 004°14'0 0.0
2014-Oct-21 18:33N 51°15' E 004°14'0 0.0
2014-Oct-21 17:32N 51°15' E 004°14'  
Track history (hours):
 
Tides and Currents Weather Stations Pressure Air Temp Water Temp Dewpoint Dewpoint Depression Visibility Wind Speed Wind Dir Waves Ship Positions

Love Boat

Last reported at 2014-Oct-31 17:30 UTC. Time now 2014-Nov-01 02:48 UTC.
Position N 49°25' E 008°30'.

Length 110 m; draft 3 m.

Type: Ship. MMSI: 205386190.

Date/timePositionNaut miles runAvg speedWind from/ knotsBaromVisibWave heightAir tempDewpointWater temp
2014-Oct-31 17:30N 49°25' E 008°30'7 7.5
2014-Oct-31 16:33N 49°18' E 008°29'9 8.6
2014-Oct-31 15:33N 49°11' E 008°23'9 9.4
2014-Oct-31 14:34N 49°02' E 008°18'10 9.4
2014-Oct-31 13:32N 48°54' E 008°09'5 4.5
2014-Oct-31 12:20N 48°49' E 008°06'6 7.9
2014-Oct-31 11:33N 48°46' E 007°59'5 5.2
2014-Oct-31 10:33N 48°41' E 007°55'1 0.0
2014-Oct-29 13:09N 48°42' E 007°55'4 6.0
2014-Oct-29 12:33N 48°45' E 007°58'11 4.7
2014-Oct-29 10:06N 48°54' E 008°08'2 4.0
2014-Oct-29 09:32N 48°56' E 008°10'4 3.7
2014-Oct-29 08:33N 48°58' E 008°14'4 4.0
2014-Oct-29 07:33N 49°01' E 008°18'4 4.2
2014-Oct-29 06:33N 49°05' E 008°21'4 4.3
2014-Oct-29 05:33N 49°09' E 008°22'2 2.2
2014-Oct-29 04:34N 49°11' E 008°23'0 0.0
2014-Oct-29 03:33N 49°11' E 008°23'0 0.0
2014-Oct-29 02:33N 49°11' E 008°23'0 0.0
2014-Oct-29 01:33N 49°11' E 008°23'0 0.0
2014-Oct-29 00:33N 49°11' E 008°23'0 0.0
2014-Oct-28 23:33N 49°11' E 008°23'0 0.0
2014-Oct-28 22:33N 49°11' E 008°23'0 0.0
2014-Oct-28 21:33N 49°11' E 008°23'2 1.5
2014-Oct-28 20:33N 49°13' E 008°23'5 4.5
2014-Oct-28 19:33N 49°17' E 008°27'3 3.2
2014-Oct-28 18:33N 49°20' E 008°27'  
2014-Oct-25 06:28N 50°54' E 007°00'2 2.5
2014-Oct-25 05:32N 50°55' E 006°58'7 3.5
2014-Oct-25 03:27N 51°03' E 006°56'3 3.8
2014-Oct-25 02:33N 51°04' E 006°52'3 2.8
2014-Oct-25 01:33N 51°07' E 006°52'3 2.5
2014-Oct-25 00:33N 51°09' E 006°50'2 2.2
2014-Oct-24 23:33N 51°11' E 006°47'3 3.1
2014-Oct-24 22:33N 51°13' E 006°44'2 2.2
2014-Oct-24 21:33N 51°15' E 006°46'3 3.1
2014-Oct-24 20:33N 51°17' E 006°43'4 3.2
2014-Oct-24 19:16N 51°21' E 006°40'2 2.8
2014-Oct-24 18:33N 51°22' E 006°42'28 3.4
2014-Oct-24 10:18N 51°46' E 006°20'18 4.5
2014-Oct-24 06:19N 51°51' E 005°51'5 5.6
2014-Oct-24 05:29N 51°53' E 005°45'5 5.5
2014-Oct-24 04:33N 51°54' E 005°36'6 5.6
2014-Oct-24 03:33N 51°53' E 005°27'6 5.7
2014-Oct-24 02:33N 51°48' E 005°22'5 5.0
2014-Oct-24 01:33N 51°49' E 005°14'6 5.8
2014-Oct-24 00:33N 51°50' E 005°05'7 6.5
2014-Oct-23 23:33N 51°49' E 004°54'7 6.9
2014-Oct-23 22:33N 51°46' E 004°45'10 8.1
2014-Oct-23 21:21N 51°42' E 004°30'4 4.2
2014-Oct-23 20:26N 51°42' E 004°24'3 3.7
2014-Oct-23 19:33N 51°39' E 004°20'7 5.9
2014-Oct-23 18:23N 51°40' E 004°09'3 3.9
2014-Oct-23 17:33N 51°38' E 004°05'7 6.5
2014-Oct-23 16:33N 51°33' E 003°59'6 5.6
2014-Oct-23 15:33N 51°27' E 004°01'5 4.8
2014-Oct-23 14:33N 51°24' E 003°55'7 6.6
2014-Oct-23 13:33N 51°24' E 003°44'3 3.3
2014-Oct-23 12:33N 51°27' E 003°43'0 0.0
2014-Oct-23 11:33N 51°27' E 003°43'0 0.0
2014-Oct-23 10:33N 51°27' E 003°43'0 0.0
2014-Oct-23 09:33N 51°27' E 003°43'0 0.0
2014-Oct-23 08:33N 51°27' E 003°43'0 0.0
2014-Oct-23 07:33N 51°27' E 003°43'0 0.0
2014-Oct-23 06:33N 51°27' E 003°43'0 0.0
2014-Oct-23 05:33N 51°27' E 003°43'0 0.0
2014-Oct-23 04:33N 51°27' E 003°43'0 0.0
2014-Oct-23 03:33N 51°27' E 003°43'0 0.0
2014-Oct-23 02:33N 51°27' E 003°43'0 0.0
2014-Oct-23 01:33N 51°27' E 003°43'0 0.0
2014-Oct-23 00:33N 51°27' E 003°43'0 0.0
2014-Oct-22 23:34N 51°27' E 003°43'0 0.0
2014-Oct-22 22:33N 51°27' E 003°43'0 0.0
2014-Oct-22 21:33N 51°27' E 003°43'1 0.8
2014-Oct-22 20:33N 51°27' E 003°42'6 6.0
2014-Oct-22 19:33N 51°23' E 003°48'7 7.2
2014-Oct-22 18:33N 51°27' E 003°58'9 9.0
2014-Oct-22 17:33N 51°23' E 004°11'8 8.3
2014-Oct-22 16:33N 51°16' E 004°19'1 1.2
2014-Oct-22 15:32N 51°16' E 004°17'1 0.5
2014-Oct-22 14:32N 51°16' E 004°16'1 1.4
2014-Oct-22 13:33N 51°15' E 004°14'0 0.0
2014-Oct-22 12:33N 51°15' E 004°14'0 0.1
2014-Oct-22 11:33N 51°16' E 004°14'0 0.0
2014-Oct-22 10:33N 51°16' E 004°14'0 0.0
2014-Oct-22 09:33N 51°16' E 004°14'0 0.0
2014-Oct-22 08:25N 51°16' E 004°14'0 0.1
2014-Oct-22 07:33N 51°15' E 004°14'0 0.1
2014-Oct-22 06:31N 51°15' E 004°14'0 0.0
2014-Oct-22 05:33N 51°15' E 004°14'0 0.0
2014-Oct-22 04:34N 51°15' E 004°14'0 0.0
2014-Oct-22 03:33N 51°15' E 004°14'0 0.0
2014-Oct-22 02:29N 51°15' E 004°14'0 0.0
2014-Oct-22 01:33N 51°15' E 004°14'0 0.0
2014-Oct-22 00:33N 51°15' E 004°14'0 0.0
2014-Oct-21 21:31N 51°15' E 004°14'0 0.0
2014-Oct-21 20:27N 51°15' E 004°14'0 0.0
2014-Oct-21 19:31N 51°15' E 004°14'0 0.0
2014-Oct-21 18:33N 51°15' E 004°14'0 0.0
2014-Oct-21 17:32N 51°15' E 004°14'  

Dump ship's entire track history